Date String (YYYY-MM-DD hh:mm:ss) UTC,Instrument flags,Ambient pressure (hPa),Sample flow (lpm),Bypass flow (lpm),Sample temperature (°C),Ambient temperature (°C),ASC tube jacket temperature (°C),LED temperature (°C),Box temperature (°C),Sample RH (%),Span deviation,Mass concentration (μg/m³),Mass concentration (μg/m³),Mass concentration (μg/m³)
DateTimeUTC,F1_M11,P_M11,Q1_M11,Q2_M11,T1_M11,T2_M11,T3_M11,T4_M11,T5_M11,U1_M11,ZSPAN_M11,X0_M11,X2_M11,X1_M11
2022-02-27 22:00:00,,0830.2,5.00,0.00,27.4,26.7,00.0,36.2,29.2,07.5,0004.5,0010.01,0007.12,0006.78
2022-02-27 22:01:00,,0830.2,5.00,0.00,27.4,26.7,00.0,36.3,29.2,07.4,0004.2,0010.12,0007.14,0006.79
2022-02-27 22:02:00,,0830.2,5.00,0.00,27.4,26.8,00.0,36.3,29.3,07.5,0004.3,0010.17,0007.16,0006.80
2022-02-27 22:03:00,,0830.2,5.00,0.00,27.4,26.8,00.0,36.3,29.3,08.1,0004.3,0009.98,0007.13,0006.79
2022-02-27 22:04:00,,0830.2,5.00,0.00,27.5,26.8,00.0,36.3,29.3,07.8,0004.5,0009.73,0007.13,0006.79
2022-02-27 22:05:00,,0830.2,4.99,0.00,27.5,26.8,00.0,36.3,29.3,07.9,0004.1,0009.71,0007.10,0006.78
2022-02-27 22:06:00,,0830.2,5.01,0.00,27.5,26.8,00.0,36.3,29.3,07.7,0004.4,0009.70,0007.09,0006.77
2022-02-27 22:07:00,,0830.3,5.00,0.00,27.5,26.8,00.0,36.3,29.4,07.5,0004.5,0009.71,0007.10,0006.78
2022-02-27 22:08:00,,0830.3,5.00,0.00,27.5,26.8,00.0,36.3,29.4,07.5,0004.1,0009.73,0007.10,0006.77
2022-02-27 22:09:00,,0830.3,5.01,0.00,27.5,26.9,00.0,36.4,29.4,07.5,0004.5,0009.69,0007.10,0006.78
2022-02-27 22:10:00,,0830.4,5.00,0.00,27.6,26.9,00.0,36.4,29.4,07.6,0004.6,0009.66,0007.10,0006.78
2022-02-27 22:11:00,,0830.4,4.99,0.00,27.6,26.9,00.0,36.4,29.5,07.7,0003.9,0009.74,0007.12,0006.78
2022-02-27 22:12:00,,0830.4,5.00,0.00,27.6,27.0,00.0,36.4,29.5,07.6,0004.4,0009.75,0007.14,0006.77
2022-02-27 22:13:00,,0830.3,5.00,0.00,27.6,27.0,00.0,36.4,29.6,07.5,0004.6,0009.69,0007.12,0006.77
2022-02-27 22:14:00,,0830.3,5.00,0.00,27.7,27.0,00.0,36.4,29.6,07.9,0004.6,0009.69,0007.13,0006.78
2022-02-27 22:15:00,,0830.3,5.00,0.00,27.7,27.0,00.0,36.5,29.6,07.4,0004.1,0009.63,0007.08,0006.75
2022-02-27 22:16:00,,0830.3,5.01,0.00,27.7,27.1,00.0,36.5,29.6,07.8,0004.4,0009.64,0007.07,0006.76
2022-02-27 22:17:00,,0830.3,4.99,0.00,27.7,27.1,00.0,36.5,29.6,08.2,0004.5,0009.67,0007.06,0006.75
2022-02-27 22:18:00,,0830.3,4.99,0.00,27.7,27.1,00.0,36.5,29.6,08.0,0003.1,0009.68,0007.05,0006.73
2022-02-27 22:19:00,,0830.2,4.99,0.00,27.7,27.1,00.0,36.5,29.6,07.9,0002.5,0009.71,0007.06,0006.73
2022-02-27 22:20:00,,0830.2,5.03,0.00,27.7,27.1,00.0,36.6,29.6,08.1,0001.9,0009.75,0007.04,0006.71
2022-02-27 22:21:00,,0830.2,5.00,0.00,27.7,27.1,00.0,36.6,29.6,08.4,0002.1,0009.69,0007.00,0006.67
2022-02-27 22:22:00,,0830.2,4.99,0.00,27.8,27.1,00.0,36.6,29.6,08.4,0004.0,0009.59,0006.97,0006.65
2022-02-27 22:23:00,,0830.2,5.00,0.00,27.8,27.1,00.0,36.6,29.6,08.3,0003.6,0009.57,0006.95,0006.64
2022-02-27 22:24:00,,0830.3,5.00,0.00,27.8,27.1,00.0,36.6,29.7,08.4,0002.3,0009.66,0006.97,0006.64
2022-02-27 22:25:00,,0830.3,5.00,0.00,27.8,27.1,00.0,36.6,29.7,08.2,0003.3,0009.59,0006.95,0006.61
2022-02-27 22:26:00,,0830.3,4.99,0.00,27.8,27.1,00.0,36.6,29.6,08.2,0003.8,0009.65,0006.97,0006.61
2022-02-27 22:27:00,,0830.3,5.00,0.00,27.8,27.1,00.0,36.7,29.6,08.0,0004.4,0009.75,0007.00,0006.60
2022-02-27 22:28:00,,0830.3,5.01,0.00,27.8,27.0,00.0,36.7,29.6,08.1,0004.1,0009.89,0007.07,0006.61
2022-02-27 22:29:00,,0830.3,4.99,0.00,27.8,27.1,00.0,36.7,29.6,08.5,0004.4,0010.48,0007.08,0006.60
2022-02-27 22:30:00,,0830.3,5.00,0.00,27.8,27.1,00.0,36.7,29.6,08.1,0005.2,0010.53,0007.05,0006.59
2022-02-27 22:31:00,,0830.2,4.99,0.00,27.8,27.1,00.0,36.7,29.6,08.4,0005.0,0010.54,0007.05,0006.59
2022-02-27 22:32:00,,0830.2,5.00,0.00,27.8,27.1,00.0,36.7,29.6,08.4,0004.8,0010.57,0007.07,0006.60
2022-02-27 22:33:00,,0830.2,5.01,0.00,27.8,27.1,00.0,36.7,29.6,08.3,0005.3,0010.55,0007.08,0006.61
2022-02-27 22:34:00,,0830.2,5.00,0.00,27.8,27.0,00.0,36.7,29.6,08.3,0005.2,0010.47,0007.06,0006.62
2022-02-27 22:35:00,,0830.2,5.00,0.00,27.8,27.0,00.0,36.7,29.6,08.5,0005.2,0010.34,0007.01,0006.62
2022-02-27 22:36:00,,0830.2,4.98,0.00,27.8,27.1,00.0,36.7,29.6,08.4,0005.6,0010.39,0007.04,0006.65
2022-02-27 22:37:00,,0830.2,4.99,0.00,27.8,27.1,00.0,36.7,29.7,08.8,0005.9,0010.32,0007.04,0006.65
2022-02-27 22:38:00,,0830.2,5.01,0.00,27.8,27.1,00.0,36.7,29.7,08.4,0005.5,0010.23,0007.02,0006.66
2022-02-27 22:39:00,,0830.2,5.01,0.00,27.8,27.1,00.0,36.7,29.7,08.5,0005.3,0010.15,0007.01,0006.67
2022-02-27 22:40:00,,0830.2,5.00,0.00,27.9,27.2,00.0,36.7,29.7,09.0,0005.2,0009.70,0007.04,0006.69
2022-02-27 22:41:00,,0830.2,4.99,0.00,27.9,27.2,00.0,36.8,29.7,08.6,0004.9,0009.55,0007.07,0006.71
2022-02-27 22:42:00,,0830.2,5.00,0.00,27.9,27.2,00.0,36.8,29.8,08.1,0005.0,0009.57,0007.10,0006.73
2022-02-27 22:43:00,,0830.2,5.00,0.00,27.9,27.2,00.0,36.8,29.8,07.9,0005.1,0009.61,0007.15,0006.78
2022-02-27 22:44:00,,0830.1,5.00,0.00,27.9,27.3,00.0,36.8,29.8,08.1,0004.0,0009.73,0007.19,0006.82
2022-02-27 22:45:00,,0830.1,4.99,0.00,27.9,27.3,00.0,36.8,29.9,08.0,0003.6,0009.84,0007.24,0006.85
2022-02-27 22:46:00,,0830.1,5.00,0.00,28.0,27.3,00.0,36.8,29.9,08.3,0003.2,0009.94,0007.28,0006.87
2022-02-27 22:47:00,,0830.2,5.01,0.00,28.0,27.3,00.0,36.8,29.9,08.0,0002.5,0009.92,0007.28,0006.89
2022-02-27 22:48:00,,0830.1,4.99,0.00,28.0,27.3,00.0,36.8,29.8,08.0,0002.8,0010.04,0007.28,0006.92
2022-02-27 22:49:00,,0830.2,5.00,0.00,28.0,27.3,00.0,36.8,29.8,08.0,0001.3,0010.14,0007.31,0006.95
2022-02-27 22:50:00,,0830.2,5.00,0.00,28.0,27.3,00.0,36.9,29.9,08.1,0000.3,0010.16,0007.32,0006.97
2022-02-27 22:51:00,,0830.2,4.99,0.00,28.0,27.3,00.0,36.9,29.9,07.8,0003.6,0010.18,0007.34,0006.99
2022-02-27 22:52:00,,0830.1,5.02,0.00,28.0,27.3,00.0,36.9,29.9,07.8,0002.7,0010.31,0007.41,0007.03
2022-02-27 22:53:00,,0830.2,5.00,0.00,28.0,27.3,00.0,36.9,29.9,08.0,0000.0,0010.38,0007.45,0007.05
2022-02-27 22:54:00,,0830.1,4.98,0.00,28.0,27.3,00.0,36.9,29.9,07.8,0002.4,0010.56,0007.47,0007.07
2022-02-27 22:55:00,,0830.1,5.00,0.00,28.0,27.3,00.0,36.9,29.9,08.0,0003.7,0010.67,0007.50,0007.08
2022-02-27 22:56:00,,0830.2,5.00,0.00,28.1,27.3,00.0,36.9,30.0,08.0,0004.3,0010.69,0007.50,0007.08
2022-02-27 22:57:00,,0830.1,4.99,0.00,28.1,27.3,00.0,36.9,30.0,08.1,0004.1,0012.03,0007.52,0007.09
2022-02-27 22:58:00,,0830.1,5.01,0.00,28.1,27.4,00.0,36.9,30.0,08.0,0004.7,0012.22,0007.56,0007.11
2022-02-27 22:59:00,,0830.1,5.01,0.00,28.1,27.4,00.0,37.0,30.0,07.9,0004.8,0012.17,0007.61,0007.12
